Regional Weather Roundup
Issued by NWS

Home | Current Version | Previous Version | Graphics & Text | Print | Product List | Glossary On
Versions: 1 2 3 4 5 6 7 8 9 10 11 12 13 14 15 16 17 18 19 20 21 22 23 24 25 26 27 28 29 30 31 32 33 34 35 36 37 38 39 40 41 42 43 44 45 46 47 48 49 50
000
ASUS43 KLSX 012059
RWRMO

WEATHER SUMMARY FOR MISSOURI
NATIONAL WEATHER SERVICE SPRINGFIELD MO
400 PM CDT MON JUN 01 2015

NOTE: "FAIR" INDICATES FEW OR NO CLOUDS BELOW 12,000 FEET WITH NO
       SIGNIFICANT WEATHER AND/OR OBSTRUCTIONS TO VISIBILITY.
       CURRENT SKY AND/OR WEATHER CONDITIONS ARE NOT AVAILABLE FOR
       CHILLICOTHE AND FARMINGTON.

MOZ001>031-035>038-043-044-053-054-012200-
...NORTHERN AND WESTERN MISSOURI...

CITY           SKY/WX    TMP DP  RH WIND       PRES   REMARKS
KANSAS CTY INT CLOUDY    64  55  72 E6        30.15F
KANSAS C DTWN  CLOUDY    65  54  67 E5        30.14F
LEE`S SUMMIT   CLOUDY    64  55  72 E6        30.15F
ST JOSEPH      MOSUNNY   69  55  60 E12       30.13F
CHILLICOTHE      N/A     67  55  65 SE3       30.16S
KIRKSVILLE     CLOUDY    63  54  72 E9        30.17F

$$
MOZ066>068-077>081-088>096-101>105-012200-
...SOUTHWEST MISSOURI...

CITY           SKY/WX    TMP DP  RH WIND       PRES   REMARKS
SPRINGFIELD    SUNNY     69  56  62 NE9       30.11F
JOPLIN         PTSUNNY   72  58  61 NE9       30.11F

$$
MOZ032>034-039>042-045>050-055>058-069>072-012200-
...CENTRAL MISSOURI...

CITY           SKY/WX    TMP DP  RH WIND       PRES   REMARKS
COLUMBIA       CLOUDY    62  54  74 E5        30.15F
JEFFERSON CITY CLOUDY    63  53  70 CALM      30.15F
ROLLA          CLOUDY    59  54  83 NE5       30.13F
SEDALIA        CLOUDY    64  54  69 SE3       30.16F
OSAGE BEACH    CLOUDY    61  54  77 N3        30.15S

$$
MOZ051-052-059>065-012200-
...EAST CENTRAL MISSOURI...

CITY           SKY/WX    TMP DP  RH WIND       PRES   REMARKS
ST LOUIS INTL  CLOUDY    65  54  67 NE8       30.14F
SPIRIT OF STL  CLOUDY    63  56  78 N7        30.13F
ST CHARLES     CLOUDY    65  56  72 NE10      30.13F

$$
MOZ072>076-082>087-097>100-106>115-012200-
...SOUTH CENTRAL AND SOUTHEAST MISSOURI...

CITY           SKY/WX    TMP DP  RH WIND       PRES   REMARKS
CAPE GIRARDEAU CLOUDY    64  59  83 N6        30.10F
FARMINGTON     CLOUDY    61  55  82 N5        30.16S
POPLAR BLUFF   LGT RAIN  62  58  86 N14       30.10S FOG
WEST PLAINS    CLOUDY    67  57  70 N5        30.13F

$$


USA.gov is the U.S. government's official web portal to all federal, state and local government web resources and services.